EHI
0 0 0 0 0 0 0 0 0 0 0 0 0 0 0 0 0 0 0 0 0 0 0 0 0 0 0 0 0 0 0 0 0 0 0 0 0 0 0 0 0 0 0 0
0 0 0 0 0 0 0 0 0 0 0 0 0 0 0 0 0 0 0 0 0 0 0 0 0 0 0 0 0 0 0 0 0 0 0 0 0 0 0 0 0 0 0 0
0 0 0 0 0 0 0 0 0 0 0 0 0 0 0 0 0 0 0 0 0 0 0 0 0 0 0 0 0 0 0 0 0 0 0 0 0 0 0 0 0 0 0 0
0 0 0 0 0 0 0 0 0 0 0 0 0 0 0 0 0 0 0 0 0 0 0 0 0 0 0 0 0 0 0 0 0 0 0 0 0 0 0 0 0 0 0 0
0 0 0 0 0 0 0 0 0 0 0 0 0 0 0 0 0 0 0 0 0 0 0 0 0 0 0 0 0 0 0 0 0 0 0 0 0 0 0 0 0 0 0 0
0 0 0 0 0 0 0 0 0 0 0 0 0 0 0 0 0 0 0 0 0 0 0 0 0 0 0 0 0 0 0 0 0 0 0 0 0 0 0 0 0 0 0 0
0 0 0 0 0 0 0 0 0 0 0 0 0 0 0 0 0 0 0 0 0 0 0 0 0 0 0 0 0 0 0 0 0 0 0 0 0 0 0 0 0 0 0 0
0 0 0 0 0 0 0 0 0 0 0 0 0 0 0 0 0 0 0 0 0 0 0 0 0 0 0 0 0 0 0 0 0 0 0 0 0 0 0 0 0 0 0 0
0 0 0 0 0 0 0 0 0 0 0 0 0 0 0 0 0 0 0 0 0 0 0 0 0 0 0 0 0 0 0 0 0 0 0 0 0 0 0 0 0 0 0 0
0 0 0 0 0 0 0 0 0 0 0 0 0 0 0 0 0 0 0 0 0 0 0 0 0 0 0 0 0 0 0 0 0 0 0 0 0 0 0 0 0 0 0 0
0 0 0 0 0 0 0 0 0 0 0 0 0 0 0 0 0 0 0 0 0 0 0 0 0 0 0 0 0 0 0 0 0 0 0 0 0 0 0 0 0 0 0 0
0 0 0 0 0 0 0 0 0 0 0 0 0 0 0 0 0 0 0 0 0 0 0 0 0 0 0 0 0 0 0 0 0 0 0 0 0 0 0 0 0 0 0 0
0 0 0 0 0 0 0 0 0 0 0 0 0 0 0 0 0 0 0 0 0 0 0 0 0 0 0 0 0 0 0 0 0 0 0 0 0 0 0 0 0 0 0 0
0 0 0 0 0 0 0 0 0 0 0 0 0 0 0 0 0 0 0 0 0 0 0 0 0 0 0 0 0 0 0 0 0 0 0 0 0 0 0 0 0 0 0 0
0 0 0 0 0 0 0 0 0 0 0 0 0 0 0 0 0 0 0 0 0 0 0 0 0 0 0 0 0 0 0 0 0 0 0 0 0 0 0 0 0 0 0 0
0 0 0 0 0 0 0 0 0 0 0 0 0 0 0 0 0 0 0 0 0 0 0 0 0 0 0 0 0 0 0 0 0 0 0 0 0 0 0 0 0 0 0 0
0 0 0 0 0 0 0 0 0 0 0 0 0 0 0 0 0 0 0 0 0 0 0 0 0 0 0 0 0 0 0 0 0 0 0 0 0 0 0 0 0 0 0 0
0 0 0 0 0 0 0 0 0 0 0 0 0 0 0 0 0 0 0 0 0 0 0 0 0 0 0 0 0 0 0 0 0 0 0 0 0 0 0 0 0 0 0 0
0 0 0 0 0 0 0 0 0 0 0 0 0 0 0 0 0 0 0 0 0 0 0 0 0 0 0 0 0 0 0 0 0 0 0 0 0 0 0 0 0 0 0 0
0 0 0 0 0 0 0 0 0 0 0 0 0 0 0 0 0 0 0 0 0 0 0 0 0 0 0 0 0 0 0 0 0 0 0 0 0 0 0 0 0 0 0 0
0 0 0 0 0 0 0 0 0 0 0 0 0 0 0 0 0 0 0 0 0 0 0 0 0 0 0 0 0 0 0 0 0 0 0 0 0 0 0 0 0 0 0 0
0 0 0 0 0 0 0 0 0 0 0 0 0 0 0 0 0 0 0 0 0 0 0 0 0 0 0 0 0 0 0 0 0 0 0 0 0 0 0 0 0 0 0 0
0 0 0 0 0 0 0 0 0 0 0 0 0 0 0 0 0 0 0 0 0 0 0 0 0 0 0 0 0 0 0 0 0 0 0 0 0 0 0 0 0 0 0 0
0 0 0 0 0 0 0 0 0 0 0 0 0 0 0 0 0 0 0 0 0 0 0 0 0 0 0 0 0 0 0 0 0 0 0 0 0 0 0 0 0 0 0 0
0 0 0 0 0 0 0 0 0 0 0 0 0 0 0 0 0 0 0 0 0 0 0 0 0 0 0 0 0 0 0 0 0 0 0 0 0 0 0 0 0 0 0 0
0 0 0 0 0 0 0 0 0 0 0 0 0 0 0 0 0 0 0 0 0 0 0 0 0 0 0 0 0 0 0 0 0 0 0 0 0 0 0 0 0 0 0 0
0 0 0 0 0 0 0 0 0 0 0 0 0 0 0 0 0 0 0 0 0 0 0 0 0 0 0 0 0 0 0 0 0 0 0 0 0 0 0 0 0 0 0 0
Wind_Speed
10 8 6 9 10 12 15 14 13 13 12 11 7 6 5 4 3 3 3 2 2 2 2 2 2 2 2 2 1 1 1 2 2 2 2 2 2 2 2 2 3 3 3 4
7 6 7 12 14 15 16 16 16 16 16 8 6 3 4 4 3 3 4 3 3 2 2 3 3 2 2 2 2 2 2 2 1 1 2 2 2 2 3 3 3 3 4 4
7 2 4 13 12 14 11 11 11 15 11 3 4 4 5 4 4 4 4 4 3 3 3 3 3 3 2 2 1 2 2 2 1 2 2 2 2 3 3 3 4 4 4 5
4 2 12 4 1 7 10 9 10 8 6 5 5 4 4 4 4 4 3 3 3 3 3 2 2 1 1 1 1 1 2 2 2 2 2 2 3 3 3 4 4 4 5 5
4 7 11 4 2 4 7 7 7 9 8 5 2 3 4 3 3 4 3 3 2 2 2 1 1 1 1 1 1 1 2 2 3 3 3 3 3 4 4 4 5 5 5 6
6 8 10 2 2 1 2 6 3 5 6 4 3 5 3 1 1 2 1 1 1 1 1 1 1 1 2 2 2 2 3 3 3 3 3 4 4 4 4 4 5 5 5 6
10 10 9 1 1 4 6 3 1 3 4 4 5 4 2 1 2 1 1 1 0 1 1 1 1 2 2 2 3 3 3 3 3 3 4 4 4 4 4 4 5 5 6 6
7 9 9 3 5 6 3 1 1 2 3 4 4 3 2 2 1 1 1 1 1 1 1 1 1 2 2 3 2 2 2 3 3 3 3 3 3 4 4 4 5 5 5 5
7 6 1 4 4 2 1 2 2 3 3 3 4 4 3 3 2 1 1 1 1 1 1 1 2 2 3 2 2 2 2 3 3 3 3 3 3 4 4 4 4 4 4 4
5 6 4 4 4 3 3 3 3 2 2 3 4 4 4 3 2 2 2 2 1 2 2 2 2 2 2 2 1 2 2 3 3 3 3 3 3 3 3 3 4 4 4 5
7 6 4 5 5 5 3 3 3 3 2 3 3 3 3 2 2 2 2 2 2 2 2 2 2 2 2 2 2 2 2 3 3 3 3 3 3 3 4 4 5 5 5 5
6 4 4 3 3 3 3 4 4 3 3 3 3 3 3 2 2 2 2 2 2 2 2 2 2 2 2 2 2 2 2 3 2 2 2 3 3 4 5 6 8 9 10 9
4 2 3 3 2 2 3 3 3 3 3 3 2 2 2 2 2 2 2 2 2 3 2 2 2 2 2 2 2 3 3 3 3 3 3 3 3 3 4 5 6 8 9 10
3 2 3 3 3 2 2 1 1 1 1 1 1 1 1 1 2 2 2 2 2 2 2 2 2 3 2 2 2 3 3 4 3 3 3 3 3 4 4 4 5 5 6 9
4 4 3 2 1 1 1 0 0 1 1 1 1 1 1 2 2 3 2 1 1 1 2 2 3 3 2 2 3 3 3 2 2 3 3 3 3 3 4 4 4 5 5 6
3 2 2 2 2 2 1 2 2 2 2 2 2 2 2 2 2 2 1 1 2 2 2 3 3 3 2 3 3 3 3 4 4 3 3 3 3 3 3 4 4 4 4 5
3 3 3 4 4 4 4 4 4 3 3 3 3 2 2 1 2 2 2 1 2 3 3 3 3 3 2 2 3 3 3 3 4 3 3 3 3 3 3 4 4 4 5 5
4 4 4 4 5 5 4 4 3 3 4 3 2 2 2 2 3 3 2 1 2 2 3 3 3 2 2 2 2 2 2 2 2 3 3 3 3 3 4 4 4 5 5 5
3 3 3 3 3 4 4 4 4 3 3 2 2 3 3 3 3 2 2 2 2 3 3 2 3 2 2 3 3 2 2 3 3 3 3 4 4 4 4 4 5 5 5 5
2 1 2 2 2 2 3 3 3 2 2 2 2 2 2 2 2 2 2 3 3 3 3 3 3 3 3 3 4 2 3 3 3 3 3 3 4 4 4 4 5 5 5 5
1 1 1 1 1 1 2 2 2 3 2 2 3 3 3 2 2 2 2 3 2 3 3 4 2 3 3 3 4 3 3 3 3 4 4 4 4 5 5 5 5 5 5 5
1 1 1 1 1 1 1 1 2 2 2 2 2 2 2 2 2 2 3 4 3 4 3 2 3 4 4 4 2 3 3 3 4 4 4 4 4 5 5 5 5 5 6 6
1 1 1 1 1 1 1 1 2 2 2 3 3 3 3 3 2 2 3 2 3 5 3 3 5 6 6 3 2 3 4 4 4 4 4 5 5 5 5 6 6 6 6 6
1 1 1 1 1 1 1 2 1 2 2 2 3 3 3 3 3 3 3 4 5 6 3 5 7 7 5 2 3 3 4 4 4 5 5 5 5 5 6 6 6 6 6 8
2 1 1 2 2 2 2 1 1 1 1 1 2 3 3 3 3 3 3 3 5 5 3 5 7 6 4 3 3 4 4 5 5 5 5 5 5 6 6 6 6 7 7 7
2 2 2 2 2 2 1 1 1 1 1 2 2 2 2 2 3 3 3 3 4 5 4 3 3 4 4 4 4 5 5 5 6 5 5 6 6 6 6 6 8 7 7 7
1 1 1 1 1 1 2 2 2 2 2 2 3 2 2 2 2 2 3 3 3 3 3 3 3 3 4 4 4 5 5 5 5 5 5 6 6 6 6 8 7 7 7 7
Wind_Direction
259 269 248 240 228 210 215 229 242 252 253 265 271 271 276 279 263 244 237 232 243 252 257 266 278 285 286 287 290 285 273 274 282 299 285 285 284 276 274 275 274 276 276 279
257 249 251 257 245 230 230 236 244 257 264 269 282 277 266 267 249 237 241 246 248 253 261 264 268 271 267 273 286 281 266 272 289 304 291 278 283 282 276 275 275 272 270 273
256 243 268 254 231 215 215 219 221 239 251 259 262 262 261 256 241 245 255 256 256 256 256 261 265 260 253 261 265 259 265 278 281 290 286 279 280 281 278 277 276 272 272 272
256 234 244 254 110 201 214 231 225 243 262 262 270 283 275 253 238 251 262 263 264 265 267 268 261 250 242 239 234 245 262 281 281 283 283 281 278 279 284 282 275 274 276 277
223 246 265 255 182 187 209 243 228 236 251 261 284 285 255 225 229 251 265 270 269 278 267 248 228 211 202 213 229 245 261 276 281 276 276 275 277 282 284 284 280 275 276 276
220 240 253 268 114 151 196 249 214 219 235 234 221 254 262 137 272 278 274 269 275 282 241 212 211 187 193 212 230 250 268 278 278 272 269 269 273 279 283 280 277 280 280 278
230 244 262 348 132 167 212 263 99 211 225 214 230 267 319 288 278 276 283 286 267 219 218 217 192 189 211 224 244 264 275 277 275 269 265 266 273 278 284 281 282 281 281 282
211 230 247 126 152 200 247 11 246 239 236 230 248 279 287 275 270 250 289 285 226 219 237 218 192 198 229 249 266 273 268 271 273 274 275 272 274 278 276 275 278 279 282 285
211 231 337 173 204 242 269 261 268 263 252 238 255 265 272 271 263 242 248 252 236 216 231 236 215 214 233 259 266 263 264 269 273 277 276 274 271 273 274 270 272 280 281 284
249 257 261 244 252 268 267 270 285 276 255 238 248 258 263 268 260 253 255 249 229 212 226 243 235 236 245 259 255 250 261 273 275 276 278 276 274 271 271 268 269 275 280 284
251 269 279 252 251 260 268 272 280 281 270 246 242 254 259 259 252 247 252 249 226 222 232 250 257 259 268 258 237 248 263 271 277 277 281 284 281 278 276 271 272 276 277 281
248 240 233 256 263 245 247 257 260 264 280 272 238 242 254 256 258 255 250 243 234 241 249 257 260 268 274 261 239 242 259 268 271 273 278 281 287 292 286 284 290 285 283 284
255 273 260 276 285 271 253 263 266 255 255 263 259 239 239 259 265 261 252 243 237 241 248 254 261 269 271 260 245 241 253 265 270 271 272 276 281 288 298 303 297 297 299 300
234 227 253 256 261 260 265 282 285 281 275 254 251 245 239 264 269 260 262 259 249 243 245 249 259 269 274 259 248 249 254 261 266 265 269 274 278 283 287 293 301 302 306 309
247 239 238 242 246 250 248 208 174 268 286 291 265 251 253 261 266 275 284 282 253 244 246 246 255 267 271 253 249 250 254 257 262 268 269 272 276 279 282 286 290 298 304 310
241 226 216 222 230 229 221 225 232 249 259 266 267 266 267 270 281 292 295 239 230 248 252 250 258 268 259 250 255 253 253 266 274 270 267 269 272 275 280 284 288 293 299 307
191 217 229 238 239 236 237 239 238 245 250 253 259 265 259 264 284 290 288 260 252 257 257 254 263 274 264 255 254 260 263 264 270 273 269 273 275 276 278 281 284 289 292 299
230 233 226 229 230 235 243 244 243 246 248 254 257 244 236 241 257 271 281 286 285 280 271 268 268 272 265 265 260 262 262 263 264 264 268 270 274 274 276 278 282 286 291 298
232 230 230 231 228 226 231 237 240 245 251 240 231 233 243 250 258 263 263 257 259 271 281 280 283 288 274 273 273 258 257 262 264 265 267 273 277 274 274 275 279 283 288 291
244 247 243 244 238 226 229 235 236 242 239 219 217 230 243 252 250 246 243 249 253 266 278 273 274 273 269 265 274 258 254 256 261 265 266 266 269 273 275 277 279 282 283 283
243 237 233 233 258 260 241 233 224 228 223 202 208 221 235 253 247 235 242 262 275 269 269 275 276 270 264 263 269 260 256 257 259 262 265 267 270 273 275 276 277 278 280 281
229 224 231 229 233 266 273 235 204 201 201 205 214 217 225 244 248 248 245 252 273 279 283 275 273 270 276 279 263 260 259 260 262 263 264 266 269 272 274 276 276 277 278 279
237 228 223 220 218 243 279 222 198 201 207 215 219 223 231 243 244 247 268 258 264 277 285 270 274 282 291 287 270 266 263 262 262 263 264 265 266 268 271 274 274 275 277 277
218 220 228 223 179 187 226 233 214 221 225 237 236 235 237 248 254 246 254 274 284 289 284 280 286 291 298 286 271 268 266 264 264 265 266 266 266 266 268 270 273 274 275 278
212 210 201 193 208 228 235 225 215 235 240 255 261 255 246 242 249 264 267 268 278 288 284 281 288 295 295 278 271 268 267 265 268 269 266 267 268 269 269 270 271 274 275 276
214 218 224 230 237 244 227 209 226 242 244 259 270 263 256 254 255 260 264 270 273 280 282 277 278 285 278 274 271 270 269 273 276 273 270 270 270 270 271 273 275 274 275 276
228 231 233 252 253 235 225 222 232 243 244 250 266 269 269 271 268 268 273 276 280 280 280 279 277 275 275 274 273 272 271 271 271 270 270 269 269 270 272 273 273 274 275 275